Location: Unspecified
(0.0000°N, 0.0000°E)
Time: 01:13:26
(UTC+00:00)

Orbcomm F1 (FM01) - Pass Details

Date: 21 May 2026
Orbit: 578 x 582 km, 70.0° (Epoch: 10 June)

Event Time Altitude Azimuth Distance (km) Brightness Sun altitude
Exits shadow 04:28:10 33° 186° (S) 977 7.8 -20.7°
Maximum altitude 04:29:59 76° 107° (ESE) 602 7.0 -20.3°
Drops below altitude 10° 04:34:12 10° 21° (NNE) 1,890 10.1 -19.3°
Sets 04:36:25 0° 19° (NNE) 2,786 11.0 -18.8°
